Theta_e
266 264 266 270 275 278 277 276 276 277 278 279 279 280 280 281 281 281 281 282 282 282 282 281 282 283 283 283 284 284 283 283 281 283 285 285 284 284 285 285 287 287 287
266 268 269 267 269 275 277 278 278 277 278 278 278 279 280 281 281 280 280 281 280 280 281 281 281 283 281 282 283 282 282 283 282 280 283 283 283 284 284 284 287 288 287
268 268 270 270 269 270 272 276 278 278 278 278 278 277 279 280 280 280 280 280 280 280 281 281 281 281 281 281 281 281 282 284 282 281 281 283 283 283 284 284 284 284 287
273 275 272 272 273 273 273 275 275 276 275 277 278 279 279 279 280 280 281 280 280 281 282 282 282 282 281 281 282 281 282 281 281 281 281 281 281 283 283 281 282 283 283
273 273 272 270 268 267 268 271 273 276 275 275 277 278 279 280 280 279 280 280 280 280 281 282 283 284 286 285 284 282 282 281 281 281 281 281 281 281 280 282 280 281 282
272 274 273 272 269 269 269 267 269 274 272 273 276 276 277 279 282 284 282 280 281 281 280 281 281 283 283 285 286 286 285 281 281 281 281 280 280 280 281 280 280 280 279
265 267 272 271 271 268 265 264 269 270 269 270 272 275 276 278 281 284 285 281 281 280 280 280 280 282 283 282 283 285 285 286 286 282 280 279 279 280 280 280 281 281 280
265 265 264 266 269 270 265 264 263 262 265 266 269 270 273 277 281 283 284 282 281 280 280 279 280 280 281 282 282 281 281 282 282 282 281 281 282 283 284 283 282 280 280
266 265 266 263 264 266 266 267 264 262 262 265 264 266 269 272 280 282 282 281 281 280 280 280 280 280 282 284 282 281 281 281 284 285 285 285 286 286 285 281 278 277 276
269 269 268 266 263 263 264 266 265 262 264 267 267 266 271 270 277 281 281 277 275 279 280 280 282 281 283 283 280 278 276 279 280 280 280 282 281 279 282 280 279 276 275
271 271 271 270 266 263 263 261 263 264 265 262 264 265 266 268 270 280 282 269 273 272 276 278 280 282 282 282 282 278 279 281 278 277 278 277 278 278 279 278 277 276 274
269 270 270 270 270 271 263 263 261 261 261 265 263 267 268 268 276 279 281 282 279 271 269 272 277 281 281 281 280 280 281 280 276 275 276 276 276 276 275 276 276 276 277
267 267 268 269 270 271 266 265 265 260 263 266 268 268 270 272 270 279 282 283 284 275 274 275 279 280 280 276 277 278 276 274 274 273 273 273 273 274 275 275 276 276 276
265 266 267 268 269 269 271 271 265 265 264 269 270 270 269 271 272 273 274 277 282 281 281 279 279 275 275 272 268 266 267 271 273 271 271 272 273 273 273 274 273 273 273
266 267 267 269 268 268 270 269 268 269 271 270 271 271 269 270 273 276 275 274 269 273 271 269 269 269 267 266 263 260 261 260 262 260 268 270 271 271 271 272 272 271 270
265 267 268 269 268 269 269 270 274 276 278 279 281 279 276 278 280 281 282 282 281 281 269 265 263 262 265 264 264 263 258 263 258 260 260 261 266 267 268 270 270 269 269
265 266 267 269 268 267 268 269 268 272 276 278 279 281 282 280 282 282 282 282 283 281 270 266 264 262 261 261 262 262 263 259 255 256 256 256 259 260 264 266 267 267 267
264 270 269 268 268 268 269 269 270 270 270 271 276 278 281 284 284 283 283 283 278 280 271 267 266 264 261 261 260 260 258 258 261 258 257 256 255 257 257 260 261 260 264
263 264 266 267 268 270 271 271 271 271 271 271 272 275 278 281 284 284 284 279 277 270 269 268 267 266 265 264 263 262 260 259 259 257 257 256 257 255 256 256 257 267 268
262 270 273 269 269 269 269 270 270 270 271 271 272 273 274 276 276 279 280 276 273 271 270 268 267 267 266 265 265 265 263 262 259 257 257 257 257 255 256 256 257 257 259
263 263 271 264 264 266 267 269 270 271 271 272 272 275 278 275 275 275 273 273 273 271 270 268 268 267 266 265 264 264 263 262 262 259 257 258 257 257 257 258 257 256 256
265 261 262 263 265 265 267 271 272 271 269 271 272 274 279 278 275 273 273 273 272 271 270 269 268 267 267 266 264 264 263 262 261 262 262 261 261 261 258 257 260 257 256
264 260 260 261 263 268 266 267 269 270 267 268 269 273 274 273 271 272 273 272 271 270 269 269 268 266 266 267 266 266 264 264 264 264 264 262 264 267 264 259 259 259 257
261 259 259 261 263 266 266 269 269 271 271 267 269 272 272 271 271 272 271 271 271 270 268 267 267 266 266 265 267 267 267 266 267 266 266 265 267 268 265 262 263 261 261
259 260 260 259 261 263 264 267 266 266 268 270 270 270 270 271 271 271 271 271 270 269 267 266 266 266 266 266 266 267 269 273 272 271 269 268 269 268 265 263 264 263 262
262 260 259 259 259 261 263 265 265 265 265 268 269 269 270 270 270 270 270 269 268 268 268 267 266 265 266 267 267 269 273 275 275 277 277 272 269 267 266 265 265 264 263
Wind_Speed
3 3 3 3 3 2 2 2 1 1 2 2 2 2 3 3 4 3 3 4 4 3 4 5 4 4 3 3 3 3 2 1 1 3 1 2 4 5 6 4 5 5 4
2 2 3 3 3 3 2 1 1 1 0 0 1 2 2 3 3 3 3 3 4 3 3 4 4 3 4 3 3 3 1 1 0 3 2 3 2 4 4 6 6 6 5
0 1 2 3 2 3 4 3 3 2 2 1 1 1 1 1 2 2 2 2 2 2 2 3 2 3 2 2 2 3 2 2 1 1 3 2 2 3 6 4 6 5 7
2 1 2 3 3 3 3 3 3 2 2 3 2 2 2 2 2 2 2 0 1 2 2 2 3 2 2 2 2 3 2 2 2 2 3 3 2 3 3 5 7 6 8
3 2 4 3 3 2 3 3 3 2 3 3 3 4 3 3 3 3 3 2 1 2 3 3 3 4 6 5 3 3 3 2 2 3 3 3 3 3 4 4 7 8 9
4 5 4 3 3 3 3 2 2 2 3 2 4 3 3 4 7 7 6 3 2 2 3 3 3 6 6 5 5 6 2 3 2 2 2 3 5 5 5 5 6 7 6
4 4 5 5 5 4 4 3 3 3 2 4 5 4 5 4 10 10 10 4 3 3 3 3 3 3 5 3 5 8 7 10 10 4 2 3 6 4 6 7 8 6 8
4 5 4 4 4 4 3 4 4 2 3 3 4 5 5 6 12 12 12 4 5 4 4 4 3 4 4 5 4 4 4 3 4 4 4 5 6 7 7 7 8 8 8
4 4 4 3 5 5 4 4 3 3 3 4 3 4 6 6 14 14 11 4 5 4 3 3 4 4 6 9 4 2 3 4 7 11 11 13 14 13 11 6 6 7 8
4 3 3 3 3 4 4 5 3 3 4 2 5 6 10 7 14 16 13 3 4 4 4 4 8 6 8 8 3 3 3 4 4 5 4 6 6 7 11 3 4 6 7
5 7 6 3 3 5 4 2 3 4 3 3 4 4 6 7 8 17 18 3 5 4 4 4 3 8 7 10 10 2 4 4 3 4 3 3 4 4 1 2 3 5 6
7 7 7 7 7 6 4 4 4 3 3 5 4 5 5 6 14 16 20 18 13 6 5 4 4 8 8 7 5 8 9 7 3 4 4 3 4 3 3 5 6 7 7
6 7 7 8 9 8 5 5 4 3 4 5 5 4 6 5 5 16 20 20 20 7 4 8 11 9 5 0 4 3 5 3 3 3 4 4 5 5 6 6 6 7 8
6 7 6 6 8 5 6 5 3 4 4 6 6 6 5 5 5 5 6 8 17 12 11 7 6 6 6 3 3 3 2 2 2 2 3 4 5 5 5 5 6 6 7
6 6 7 7 6 7 7 6 5 6 8 7 7 7 6 7 8 12 9 6 4 5 7 3 3 2 2 1 1 2 2 2 2 1 2 4 4 5 6 6 6 6 6
6 6 5 6 6 7 7 8 14 18 21 22 23 15 9 17 17 16 17 18 18 17 3 3 3 3 4 3 3 1 1 1 1 1 1 1 2 4 5 6 6 6 7
7 7 6 9 6 6 7 7 8 10 17 18 21 23 22 16 20 18 17 18 20 20 4 3 4 4 4 4 4 3 2 2 0 1 1 1 2 2 4 5 6 7 7
6 14 7 5 6 6 7 8 7 8 8 8 12 15 19 19 21 20 16 16 9 16 7 6 5 5 4 4 4 3 2 2 2 2 1 1 1 1 2 3 3 3 6
5 5 6 6 7 9 7 7 7 8 8 8 8 11 12 16 16 19 21 7 7 6 6 6 5 6 5 5 4 3 3 3 3 1 1 1 2 1 3 3 3 11 11
5 13 11 4 5 6 7 7 8 8 8 8 7 8 6 7 5 6 6 6 8 7 7 7 6 6 6 5 5 4 3 3 2 2 2 2 1 2 3 3 3 3 5
4 5 11 4 5 6 6 7 8 7 7 6 7 8 14 7 6 3 7 8 8 8 7 6 6 6 5 5 4 4 3 3 3 3 2 2 1 3 2 3 3 4 4
4 3 3 4 5 6 7 7 6 6 5 6 4 6 16 6 5 6 6 8 7 7 6 7 6 6 6 6 5 4 4 4 3 3 3 2 2 3 2 3 4 3 4
2 3 3 3 4 9 6 6 5 5 4 4 3 4 4 1 2 5 6 6 7 7 6 6 6 5 4 4 4 4 5 5 4 3 3 2 3 4 3 2 3 3 3
2 1 3 3 4 5 6 5 5 9 5 3 2 2 1 2 3 5 6 5 6 6 5 5 5 6 5 4 4 4 4 3 3 4 5 4 5 5 2 2 4 3 4
1 2 2 2 3 5 6 6 5 4 5 3 2 1 0 1 3 3 4 6 5 6 5 5 4 6 7 7 5 6 7 13 8 8 5 6 7 5 2 3 3 3 3
1 2 2 2 3 3 4 6 6 4 4 3 3 1 1 1 2 4 4 5 5 5 6 4 5 6 6 5 6 9 12 13 11 16 7 3 4 3 2 4 5 2 4
Wind_Direction
355 357 20 11 22 57 97 105 80 78 80 85 62 42 35 35 38 54 42 45 51 34 27 34 27 15 17 21 22 46 62 76 258 302 274 334 346 357 341 333 321 311 322
293 334 328 329 347 2 4 346 176 198 325 18 15 33 33 42 36 38 42 36 42 29 20 31 20 12 13 15 28 23 22 345 244 288 306 339 320 326 313 317 327 327 320
342 309 319 305 315 300 301 310 331 268 242 269 303 325 349 7 6 6 17 11 43 33 26 38 342 15 351 356 2 333 330 329 352 289 298 307 284 310 324 313 317 311 312
74 1 301 280 261 260 264 267 273 281 254 258 261 270 270 283 290 290 298 356 25 22 340 350 314 307 289 297 281 277 275 289 287 284 276 280 264 297 301 319 328 321 313
296 249 255 258 262 275 283 284 290 266 254 255 269 266 272 272 261 242 246 232 285 308 327 327 302 308 292 265 250 245 245 246 280 276 284 293 305 332 332 325 311 318 310
320 297 307 321 325 294 275 271 276 256 246 237 240 233 252 255 259 261 207 219 250 284 304 315 316 303 291 314 326 316 274 209 233 260 282 297 299 308 313 316 308 325 327
342 325 329 334 318 300 296 311 281 262 223 235 242 235 238 235 254 256 255 182 201 225 254 287 303 303 339 316 310 302 298 290 285 270 265 264 291 293 297 303 301 305 294
348 351 349 349 323 320 299 277 283 269 241 237 241 229 236 245 251 251 250 209 195 201 226 245 248 267 278 271 258 262 270 288 287 288 260 259 256 262 277 303 311 304 290
321 324 322 339 330 332 314 284 257 244 257 243 235 238 236 246 254 251 246 200 202 209 223 238 247 254 273 290 285 237 273 275 290 286 289 296 296 302 307 313 302 308 311
311 306 291 292 302 308 286 290 251 209 237 234 255 234 251 250 256 251 243 173 193 204 218 237 261 245 271 292 295 228 255 275 270 278 282 291 303 294 300 298 306 297 303
324 314 303 284 286 251 271 256 266 265 265 251 247 250 239 242 256 253 245 161 192 192 212 217 228 249 276 292 281 175 227 257 348 328 301 273 265 259 273 350 313 286 278
309 308 304 300 296 289 259 269 276 261 248 260 263 271 237 237 249 246 243 239 215 185 204 211 225 241 273 283 322 298 300 342 323 301 294 301 314 325 327 303 282 269 262
299 296 294 295 297 294 278 262 267 230 234 252 242 245 261 240 227 251 239 235 238 202 196 215 211 220 238 37 300 324 344 326 310 312 318 320 328 316 299 295 299 290 280
289 289 289 284 288 273 295 286 241 245 241 245 239 244 242 245 229 221 242 243 234 234 201 211 183 140 152 132 73 46 16 337 323 319 318 321 318 322 317 318 311 307 302
277 279 283 288 282 282 278 267 255 243 242 251 239 231 227 238 234 229 219 217 185 173 123 90 113 128 151 159 62 40 17 26 62 334 331 323 327 330 324 321 315 319 305
276 280 277 286 288 287 284 288 282 283 279 273 268 244 229 235 246 246 243 228 218 190 127 137 155 158 172 168 181 213 330 268 269 290 283 287 321 328 322 333 325 322 318
260 270 273 286 280 274 281 279 289 294 287 281 277 274 271 219 235 241 235 230 210 193 151 160 158 167 174 169 168 179 199 202 168 239 237 276 296 291 340 329 330 325 321
264 278 283 278 272 268 265 268 271 276 285 286 280 279 263 269 226 225 232 220 208 199 159 160 164 165 169 171 171 175 204 211 214 201 244 273 289 276 315 310 311 286 302
268 262 261 262 263 268 271 270 262 267 269 273 282 284 276 277 261 231 213 205 194 153 154 151 150 162 167 168 172 174 180 192 188 198 224 243 286 245 293 287 296 330 335
266 282 295 295 288 282 278 274 274 268 268 263 259 261 266 287 274 265 197 150 154 155 151 153 162 158 161 168 172 172 180 202 193 200 233 244 248 230 280 294 299 301 305
262 268 293 313 285 277 278 274 268 263 264 264 257 249 243 232 236 246 154 160 163 151 150 153 155 156 156 163 165 174 182 195 198 217 228 245 278 306 271 272 278 281 278
238 251 276 271 283 288 281 282 289 270 264 269 265 250 264 261 183 168 193 155 155 149 151 149 155 160 165 170 172 176 189 205 216 219 235 222 246 268 260 269 294 291 285
242 263 273 283 286 307 308 293 289 286 274 273 265 265 254 195 177 173 162 156 142 137 137 143 149 151 154 160 168 180 191 212 212 192 224 226 247 274 255 264 282 299 308
205 279 299 299 306 333 313 326 332 334 311 267 295 293 251 173 164 161 143 141 125 127 134 136 143 152 154 160 173 186 205 211 201 222 218 223 254 284 272 260 278 278 300
76 300 300 302 311 317 320 323 321 323 323 308 296 296 68 115 119 135 142 132 130 136 139 137 138 159 174 181 190 207 224 243 232 230 221 223 243 216 217 258 267 292 298
28 297 293 298 307 309 314 322 318 314 318 322 317 296 163 128 124 127 131 130 131 130 138 138 155 170 184 200 214 228 241 250 256 262 260 182 190 194 181 252 282 281 303